Location: McFarlands Corners
(41.4117°N, 81.3382°W)
Time: 14:00:19
(UTC+00:00)

Courier 1B Rocket - Pass Details

Date: 17 February 2026
Orbit: 920 x 1201 km, 28.2° (Epoch: 10 March)

Event Time Altitude Azimuth Distance (km) Brightness Sun altitude
Rises 04:53:43 0° 255° (WSW) 3,677 - -58.9°
Reaches altitude 10° 04:57:03 10° 239° (WSW) 2,774 - -59.1°
Maximum altitude 05:01:46 20° 194° (SSW) 2,189 - -59.4°
Drops below altitude 10° 05:06:42 10° 150° (SSE) 2,919 - -59.7°
Sets 05:10:20 0° 135° (SE) 3,928 - -59.9°
